Location: Newark
(45.0500°N, 41.9667°E)
Time: 18:17:53
(UTC+00:00)

Falcon 9 debris - Visible Passes

Search period start: 21 July 2019 00:00
Search period end: 31 July 2019 00:00
Orbit: 431 x 439 km, 53.0° (Epoch: 21 July)

Date Brightness Start Highest point End Pass type
(mag) Time Alt. Az. Time Alt. Az. Time Alt. Az.
21 Jul 4.7 21:43:30 32° NE 21:43:30 32° NE 21:45:30 10° NE visible
21 Jul 5.3 23:16:46 11° WNW 23:19:30 24° NNW 23:22:24 10° NE visible
22 Jul 5.5 00:54:29 10° NW 00:57:19 23° N 01:00:09 10° ENE visible
22 Jul 5.6 21:02:24 16° ENE 21:02:24 16° ENE 21:03:14 10° ENE visible
22 Jul 5.1 22:35:40 21° NW 22:37:06 28° NNW 22:40:08 10° NE visible
23 Jul 5.6 00:12:09 10° NW 00:14:54 22° N 00:17:39 10° ENE visible
23 Jul 4.7 21:54:30 33° NNW 21:54:43 33° NNW 21:57:53 10° NE visible
23 Jul 5.7 23:29:45 10° NW 23:32:28 21° N 23:35:11 10° NE visible
24 Jul 4.9 01:06:59 10° NW 01:10:12 35° NNE 01:13:24 10° E visible
24 Jul 4.8 21:13:14 34° NNE 21:13:14 34° NNE 21:15:40 10° NE visible
24 Jul 5.7 22:47:17 10° NW 22:50:01 21° N 22:52:46 10° NE visible
25 Jul 5.2 00:24:44 10° NW 00:27:50 29° NNE 00:30:54 10° E visible
25 Jul 5.1 20:31:48 25° NE 20:31:48 25° NE 20:33:26 10° NE visible
25 Jul 5.6 22:05:02 11° WNW 22:07:35 23° N 22:10:24 10° NE visible
25 Jul 5.5 23:42:28 10° NW 23:45:25 25° NNE 23:48:22 10° ENE visible
26 Jul 5.2 19:49:58 20° NE 19:49:58 20° NE 19:51:10 10° NE visible
26 Jul 5.4 21:23:08 15° WNW 21:25:10 25° NNW 21:28:05 10° NE visible
26 Jul 5.6 23:00:10 10° NW 23:03:00 23° N 23:05:50 10° ENE visible
27 Jul 3.7 00:37:07 10° NW 00:40:33 60° NNE 00:43:56 10° ESE visible
27 Jul 5.2 17:28:18 10° SE 17:28:59 10° SE 17:29:40 10° ESE visible
27 Jul 2.9 19:02:00 10° SW 19:05:27 74° SE 19:08:54 10° ENE visible
27 Jul 5.2 20:39:42 10° WNW 20:42:46 28° NNW 20:45:49 10° NE visible
27 Jul 5.7 22:17:49 10° NW 22:20:33 22° N 22:23:19 10° ENE visible
27 Jul 4.3 23:54:53 10° NW 23:58:13 44° NNE 00:01:32 10° E visible
28 Jul 3.2 18:19:52 10° SW 18:23:13 49° SE 18:26:35 10° ENE visible
28 Jul 4.8 19:57:11 10° W 20:00:22 34° NNW 20:03:34 10° NE visible
28 Jul 5.8 21:35:24 10° NW 21:38:07 21° N 21:40:50 10° NE visible
28 Jul 4.8 23:12:38 10° NW 23:15:51 35° NNE 23:19:03 10° E visible
29 Jul 3.4 00:49:39 10° WNW 00:52:58 46° SW 00:56:17 10° SE visible
29 Jul 3.8 17:37:52 10° SSW 17:41:01 33° SE 17:44:10 10° ENE visible
29 Jul 4.4 19:14:41 10° W 19:18:00 42° NNW 19:21:19 10° NE visible
29 Jul 5.7 20:52:55 10° WNW 20:55:40 21° N 20:58:25 10° NE visible
29 Jul 5.2 22:30:24 10° NW 22:33:28 29° NNE 22:36:32 10° E visible
30 Jul 3.0 00:07:19 10° WNW 00:10:45 69° SW 00:14:09 10° SE visible
30 Jul 3.8 18:32:15 10° WSW 18:35:40 56° NNW 18:39:05 10° NE visible
30 Jul 5.6 20:10:24 10° WNW 20:13:14 23° N 20:16:02 10° NE visible
30 Jul 5.4 21:48:07 10° NW 21:51:03 25° NNE 21:53:59 10° ENE visible
30 Jul 3.1 23:25:01 10° NW 23:28:28 82° NNE 23:31:55 10° ESE visible
